Location: *
(55.6049°S, 142.1985°W)
Time: 08:46:47
(UTC+00:00)

Cosmos 2082 Rocket - Pass Details

Date: 12 May 2021
Orbit: 834 x 852 km, 71.0° (Epoch: 13 June)

Event Time Altitude Azimuth Distance (km) Brightness Sun altitude
Exits shadow 13:37:45 19° 188° (S) 1,935 4.1 -30.1°
Drops below altitude 10° 13:41:25 10° 149° (SSE) 2,523 5.1 -29.6°
Sets 13:44:38 0° 132° (SE) 3,460 6.2 -29.1°
